Zurück zum Katalog

STARLINK-32527

AktivKommunikationVLEO
NORAD 62319·PAYLOAD·🇺🇸 United States

Gestartet Dec 13, 2024 von Vandenberg Space Force Base

Loading…

Nächste Überflüge (nächste 24 Stunden)

TLE

AktuellSource: CelesTrak SupGP

Epoche: Sep 14, 2026, 14:45 UTC

1 62319C 24239U   26257.61506944 -.00119450  00000+0 -38387-2 0  2577
2 62319  53.1589  22.2677 0001276  83.8671  70.3025 15.31781733    16

Verfolge STARLINK-32527 in Echtzeit mit AllMySat

Download on the App Store